Time[GMT],chlorophyll[micrograms/liter](3m),turbidity[ntus](3m)
2020-10-06 03:00,3.09,0.19
2020-10-06 04:00,2.84,0.18
2020-10-06 05:00,2.43,0.16
2020-10-06 06:00,2.26,0.18
2020-10-06 07:00,2.01,0.15
2020-10-06 08:00,1.93,0.15
2020-10-06 09:00,2.01,0.15
2020-10-06 10:00,2.18,0.15
2020-10-06 11:00,2.34,0.16
2020-10-06 12:00,2.67,0.18
2020-10-06 13:00,2.59,0.18
2020-10-06 14:00,1.93,0.17
2020-10-06 15:00,1.27,0.16
2020-10-06 16:00,1.27,0.15
2020-10-06 17:00,1.27,0.16
2020-10-06 18:00,1.35,0.18
2020-10-06 19:00,1.60,0.17
2020-10-06 20:00,2.01,0.18
2020-10-06 21:00,2.59,0.17
2020-10-06 22:00,2.10,0.16
2020-10-06 23:00,1.85,0.15
2020-10-07 00:00,1.77,0.16
2020-10-07 01:00,1.77,0.16
2020-10-07 02:00,1.85,0.16
2020-10-07 03:00,1.77,0.15
2020-10-07 04:00,1.68,0.15
2020-10-07 05:00,1.60,0.13
2020-10-07 06:00,1.60,0.13
2020-10-07 07:00,1.68,0.14
2020-10-07 08:00,1.77,0.15
2020-10-07 09:00,1.85,0.16
2020-10-07 10:00,1.93,0.16
2020-10-07 11:00,2.01,0.16
2020-10-07 12:00,2.18,0.16
2020-10-07 13:00,2.01,0.16
2020-10-07 14:00,1.68,0.16
2020-10-07 15:00,1.44,0.15
2020-10-07 16:00,1.19,0.15
2020-10-07 17:00,1.19,0.16
2020-10-07 18:00,1.68,0.16
2020-10-07 19:00,2.34,0.15
2020-10-07 20:00,2.51,0.16
2020-10-07 21:00,2.43,0.13
2020-10-07 22:00,2.18,0.13
2020-10-07 23:00,2.18,0.12
2020-10-08 00:00,2.18,0.13
2020-10-08 01:00,2.26,0.13
2020-10-08 02:00,2.34,0.14
2020-10-08 03:00,2.26,0.14
2020-10-08 04:00,2.18,0.13
2020-10-08 05:00,2.18,0.13
2020-10-08 06:00,2.10,0.13
2020-10-08 07:00,1.93,0.14
2020-10-08 08:00,1.93,0.16
2020-10-08 09:00,1.93,0.15
2020-10-08 10:00,1.85,0.14
2020-10-08 11:00,1.93,0.14
2020-10-08 12:00,2.01,0.13
2020-10-08 13:00,1.68,0.13
2020-10-08 14:00,1.44,0.12
2020-10-08 15:00,1.44,0.13
2020-10-08 16:00,1.35,0.13
2020-10-08 17:00,1.19,0.12
2020-10-08 18:00,1.35,0.12
2020-10-08 19:00,1.44,0.12
2020-10-08 20:00,1.93,0.13
2020-10-08 21:00,2.84,0.14
2020-10-08 22:00,2.43,0.15
2020-10-08 23:00,2.26,0.15
2020-10-09 00:00,2.51,0.16
2020-10-09 01:00,2.26,0.16
2020-10-09 02:00,2.26,0.16
2020-10-09 03:00,2.01,0.14
2020-10-09 04:00,1.93,0.13
2020-10-09 05:00,1.77,0.13
2020-10-09 06:00,1.68,0.12
2020-10-09 07:00,1.68,0.13
2020-10-09 08:00,1.68,0.13
2020-10-09 09:00,1.77,0.13
2020-10-09 10:00,1.93,0.14
2020-10-09 11:00,2.01,0.15
2020-10-09 12:00,2.26,0.15
2020-10-09 13:00,1.93,0.15
2020-10-09 14:00,1.60,0.16
2020-10-09 15:00,1.52,0.16
2020-10-09 16:00,1.35,0.15
2020-10-09 17:00,1.27,0.16
2020-10-09 18:00,1.35,0.15
2020-10-09 19:00,1.60,0.15
2020-10-09 20:00,2.10,0.15
2020-10-09 21:00,2.92,0.18
2020-10-09 22:00,2.76,0.20
2020-10-09 23:00,3.00,0.23
2020-10-10 00:00,3.17,0.27
2020-10-10 01:00,2.84,0.26
2020-10-10 02:00,2.51,0.24
2020-10-10 03:00,2.34,0.23
2020-10-10 04:00,2.34,0.24
2020-10-10 05:00,2.43,0.24
2020-10-10 06:00,2.34,0.23
2020-10-10 07:00,2.34,0.23
2020-10-10 08:00,2.59,0.25
2020-10-10 09:00,2.34,0.23
2020-10-10 10:00,2.10,0.20
2020-10-10 11:00,2.18,0.21
2020-10-10 12:00,2.26,0.20
2020-10-10 13:00,2.43,0.21
2020-10-10 14:00,2.01,0.23
2020-10-10 15:00,1.93,0.23
2020-10-10 16:00,2.10,0.23
2020-10-10 17:00,2.10,0.25
2020-10-10 18:00,2.18,0.24
2020-10-10 19:00,2.67,0.24
2020-10-10 20:00,2.84,0.26
2020-10-10 21:00,3.25,0.27
2020-10-10 22:00,3.09,0.26
2020-10-10 23:00,2.76,0.23
2020-10-11 00:00,3.00,0.23
2020-10-11 01:00,3.00,0.23
2020-10-11 02:00,2.67,0.23
2020-10-11 03:00,2.26,0.21
2020-10-11 04:00,2.18,0.22
2020-10-11 05:00,2.26,0.24
2020-10-11 06:00,2.18,0.23
2020-10-11 07:00,2.10,0.23
2020-10-11 08:00,2.01,0.21
2020-10-11 09:00,2.01,0.21
2020-10-11 10:00,2.01,0.20
2020-10-11 11:00,2.18,0.20
2020-10-11 12:00,2.34,0.20
2020-10-11 13:00,1.85,0.20
2020-10-11 14:00,1.68,0.20
2020-10-11 15:00,1.44,0.19
2020-10-11 16:00,1.44,0.20
2020-10-11 17:00,1.60,0.21
2020-10-11 18:00,1.77,0.23
2020-10-11 19:00,2.51,0.21
2020-10-11 20:00,3.09,0.21
2020-10-11 21:00,4.49,0.24
2020-10-11 22:00,4.33,0.27
2020-10-11 23:00,4.82,0.29
2020-10-12 00:00,5.40,0.33
2020-10-12 01:00,5.65,0.32
2020-10-12 02:00,5.48,0.31
2020-10-12 03:00,4.57,0.29
2020-10-12 04:00,4.08,0.27
2020-10-12 05:00,4.66,0.30
2020-10-12 06:00,3.58,0.27
2020-10-12 07:00,3.42,0.26
2020-10-12 08:00,3.50,0.26
2020-10-12 09:00,3.33,0.26
2020-10-12 10:00,3.25,0.24
2020-10-12 11:00,2.92,0.22
2020-10-12 12:00,3.00,0.21
2020-10-12 13:00,3.25,0.21
2020-10-12 14:00,3.58,0.21
2020-10-12 15:00,3.91,0.21
2020-10-12 16:00,4.08,0.21
2020-10-12 17:00,4.08,0.23
2020-10-12 18:00,4.16,0.23
2020-10-12 19:00,5.07,0.23
2020-10-12 20:00,5.23,0.23
2020-10-12 21:00,4.82,0.23
2020-10-12 22:00,4.49,0.22
2020-10-12 23:00,4.33,0.21
2020-10-13 00:00,4.16,0.21
2020-10-13 01:00,4.08,0.21
2020-10-13 02:00,4.00,0.21
2020-10-13 03:00,4.00,0.21
2020-10-13 04:00,4.00,0.22
2020-10-13 05:00,4.08,0.23
2020-10-13 06:00,4.16,0.22
2020-10-13 07:00,4.24,0.23
2020-10-13 08:00,4.33,0.24
2020-10-13 09:00,4.33,0.24
2020-10-13 10:00,4.41,0.24
2020-10-13 11:00,4.33,0.23
2020-10-13 12:00,4.33,0.24
2020-10-13 13:00,4.24,0.23
2020-10-13 14:00,4.66,0.23
2020-10-13 15:00,4.99,0.23
2020-10-13 16:00,5.32,0.23
2020-10-13 17:00,5.32,0.24
2020-10-13 18:00,5.48,0.26
2020-10-13 19:00,5.73,0.27
2020-10-13 20:00,5.56,0.26
2020-10-13 21:00,5.15,0.25
2020-10-13 22:00,5.15,0.24
2020-10-13 23:00,4.66,0.23
2020-10-14 00:00,4.49,0.22
2020-10-14 01:00,4.33,0.22
2020-10-14 02:00,4.16,0.22
2020-10-14 03:00,4.08,0.23
2020-10-14 04:00,4.08,0.23
2020-10-14 05:00,4.00,0.23
2020-10-14 06:00,3.91,0.23
2020-10-14 07:00,3.83,0.22
2020-10-14 08:00,3.83,0.22
2020-10-14 09:00,3.91,0.21
2020-10-14 10:00,3.91,0.21
2020-10-14 11:00,3.83,0.20
2020-10-14 12:00,4.49,0.20
2020-10-14 13:00,3.75,0.20
2020-10-14 14:00,3.17,0.21
2020-10-14 15:00,2.84,0.21
2020-10-14 16:00,2.84,0.23
2020-10-14 17:00,3.00,0.24
2020-10-14 18:00,3.42,0.26
2020-10-14 19:00,3.50,0.27
2020-10-14 20:00,4.90,0.27
2020-10-14 21:00,5.23,0.26
2020-10-14 22:00,4.82,0.27
2020-10-14 23:00,4.74,0.27
2020-10-15 00:00,4.49,0.26
2020-10-15 01:00,4.16,0.26
2020-10-15 02:00,4.16,0.27
2020-10-15 03:00,4.16,0.27
2020-10-15 04:00,4.08,0.27
2020-10-15 05:00,4.08,0.27
2020-10-15 06:00,3.91,0.27
2020-10-15 07:00,4.24,0.27
2020-10-15 08:00,4.33,0.29
2020-10-15 09:00,4.41,0.27
2020-10-15 10:00,4.41,0.27
2020-10-15 11:00,4.08,0.26
2020-10-15 12:00,4.57,0.26
2020-10-15 13:00,4.00,0.26
2020-10-15 14:00,3.25,0.26
2020-10-15 15:00,2.92,0.27
2020-10-15 16:00,2.92,0.29
2020-10-15 17:00,3.25,0.30
2020-10-15 18:00,3.58,0.30
2020-10-15 19:00,4.49,0.30
2020-10-15 20:00,5.32,0.30
2020-10-15 21:00,6.31,0.32
2020-10-15 22:00,5.40,0.31
2020-10-15 23:00,4.82,0.30
2020-10-16 00:00,4.74,0.30
2020-10-16 01:00,4.49,0.29
2020-10-16 02:00,4.57,0.29
2020-10-16 03:00,4.57,0.30
2020-10-16 04:00,4.66,0.30
2020-10-16 05:00,4.49,0.30
2020-10-16 06:00,4.41,0.30
2020-10-16 07:00,4.49,0.30
2020-10-16 08:00,4.41,0.29
2020-10-16 09:00,4.33,0.29
2020-10-16 10:00,4.00,0.28
2020-10-16 11:00,3.50,0.24
2020-10-16 12:00,4.41,0.27
2020-10-16 13:00,4.33,0.28
2020-10-16 14:00,4.66,0.29
2020-10-16 15:00,4.74,0.30
2020-10-16 16:00,4.33,0.30
2020-10-16 17:00,4.33,0.30
2020-10-16 18:00,4.82,0.31
2020-10-16 19:00,4.66,0.30
2020-10-16 20:00,4.82,0.30
2020-10-16 21:00,4.66,0.29
2020-10-16 22:00,4.00,0.28
2020-10-16 23:00,3.75,0.26
2020-10-17 00:00,3.58,0.27
2020-10-17 01:00,3.58,0.28
2020-10-17 02:00,3.50,0.27
2020-10-17 03:00,3.33,0.26
2020-10-17 04:00,3.33,0.27
2020-10-17 05:00,3.25,0.27
2020-10-17 06:00,3.17,0.26
2020-10-17 07:00,3.25,0.26
2020-10-17 08:00,3.50,0.26
2020-10-17 09:00,3.75,0.27
2020-10-17 10:00,3.83,0.28
2020-10-17 11:00,3.66,0.26
2020-10-17 12:00,3.50,0.25
2020-10-17 13:00,3.75,0.26
2020-10-17 14:00,3.58,0.26
2020-10-17 15:00,4.00,0.26
2020-10-17 16:00,2.84,0.26
2020-10-17 17:00,2.84,0.27
2020-10-17 18:00,2.84,0.27
2020-10-17 19:00,3.00,0.27
2020-10-17 20:00,4.24,0.29
2020-10-17 21:00,4.99,0.29
2020-10-17 22:00,4.41,0.29
2020-10-17 23:00,4.16,0.28
2020-10-18 00:00,3.91,0.27
2020-10-18 01:00,3.91,0.28
2020-10-18 02:00,4.08,0.30
2020-10-18 03:00,4.00,0.28
2020-10-18 04:00,3.91,0.27
2020-10-18 05:00,3.91,0.26
2020-10-18 06:00,4.08,0.27
2020-10-18 07:00,4.08,0.27
2020-10-18 08:00,4.08,0.26
2020-10-18 09:00,4.24,0.26
2020-10-18 10:00,4.16,0.26
2020-10-18 11:00,4.00,0.25
2020-10-18 12:00,4.41,0.26
2020-10-18 13:00,4.00,0.25
2020-10-18 14:00,3.17,0.25
2020-10-18 15:00,2.51,0.24
2020-10-18 16:00,2.34,0.23
2020-10-18 17:00,2.51,0.24
2020-10-18 18:00,2.76,0.25
2020-10-18 19:00,3.50,0.27
2020-10-18 20:00,5.40,0.30
2020-10-18 21:00,5.98,0.30
2020-10-18 22:00,5.40,0.31
2020-10-18 23:00,5.07,0.34
2020-10-19 00:00,4.82,0.34
2020-10-19 01:00,4.74,0.34
2020-10-19 02:00,4.57,0.32
2020-10-19 03:00,4.57,0.30
2020-10-19 04:00,4.16,0.29
2020-10-19 05:00,4.33,0.30
2020-10-19 06:00,4.33,0.30
2020-10-19 07:00,4.49,0.30
2020-10-19 08:00,4.57,0.27
2020-10-19 09:00,4.74,0.30
2020-10-19 10:00,5.15,0.35
2020-10-19 11:00,6.64,0.39
2020-10-19 12:00,6.64,0.37
2020-10-19 13:00,7.05,0.35
2020-10-19 14:00,5.56,0.34
2020-10-19 15:00,4.66,0.33
2020-10-19 16:00,4.16,0.32
2020-10-19 17:00,3.83,0.32
2020-10-19 18:00,4.49,0.34
2020-10-19 19:00,5.32,0.33
2020-10-19 20:00,8.12,0.35
2020-10-19 21:00,7.79,0.35
2020-10-19 22:00,7.55,0.35
2020-10-19 23:00,6.31,0.37
2020-10-20 00:00,5.73,0.40
2020-10-20 01:00,5.65,0.40
2020-10-20 02:00,5.65,0.39
2020-10-20 03:00,5.65,0.37
2020-10-20 04:00,6.55,0.37
2020-10-20 05:00,6.64,0.36
2020-10-20 06:00,6.55,0.38
2020-10-20 07:00,5.89,0.37
2020-10-20 08:00,5.65,0.37
2020-10-20 09:00,5.40,0.37
2020-10-20 10:00,5.32,0.39
2020-10-20 11:00,4.66,0.42
2020-10-20 12:00,4.66,0.40
2020-10-20 13:00,4.49,0.43
2020-10-20 14:00,3.66,0.41
2020-10-20 15:00,5.07,0.40
2020-10-20 16:00,3.75,0.37
2020-10-20 17:00,5.40,0.38
2020-10-20 18:00,3.83,0.40
2020-10-20 19:00,6.06,0.41
2020-10-20 20:00,5.23,0.44
2020-10-20 21:00,4.33,0.41
2020-10-20 22:00,4.33,0.41
2020-10-20 23:00,4.00,0.37
2020-10-21 00:00,3.83,0.36
2020-10-21 01:00,3.66,0.35
2020-10-21 02:00,3.66,0.37
2020-10-21 03:00,3.50,0.39
2020-10-21 04:00,3.33,0.38
2020-10-21 05:00,3.75,0.40
2020-10-21 06:00,3.83,0.40
2020-10-21 07:00,3.75,0.40
2020-10-21 08:00,4.00,0.38
2020-10-21 09:00,3.83,0.38
2020-10-21 10:00,3.83,0.38
2020-10-21 11:00,3.83,0.38
2020-10-21 12:00,3.91,0.37
2020-10-21 13:00,4.49,0.38
2020-10-21 14:00,5.73,0.39
2020-10-21 15:00,8.29,0.43
2020-10-21 16:00,8.62,0.45
2020-10-21 17:00,8.21,0.43
2020-10-21 18:00,9.20,0.43
2020-10-21 19:00,9.20,0.44
2020-10-21 20:00,10.11,0.43
2020-10-21 21:00,8.54,0.44
2020-10-21 22:00,8.45,0.47
2020-10-21 23:00,7.22,0.46
2020-10-22 00:00,4.24,0.38
2020-10-22 01:00,3.58,0.36
2020-10-22 02:00,3.42,0.34
2020-10-22 03:00,3.42,0.35
2020-10-22 04:00,3.50,0.34
2020-10-22 05:00,3.42,0.33
2020-10-22 06:00,3.42,0.33
2020-10-22 07:00,3.17,0.32
2020-10-22 08:00,3.25,0.32
2020-10-22 09:00,3.33,0.32
2020-10-22 10:00,3.09,0.33
2020-10-22 11:00,3.09,0.56
2020-10-22 12:00,3.33,0.35
2020-10-22 13:00,2.67,0.32
2020-10-22 14:00,1.93,0.33
2020-10-22 15:00,1.85,0.35
2020-10-22 16:00,1.93,0.34
2020-10-22 17:00,6.55,0.49
2020-10-22 18:00,10.27,0.49
2020-10-22 19:00,11.10,0.45
2020-10-22 20:00,11.76,0.49
2020-10-22 21:00,11.01,0.45
2020-10-22 22:00,10.52,0.46
2020-10-22 23:00,8.62,0.45
2020-10-23 00:00,7.13,0.43
2020-10-23 01:00,5.89,0.41
2020-10-23 02:00,5.56,0.41
2020-10-23 03:00,5.15,0.40
2020-10-23 04:00,5.56,0.41
2020-10-23 05:00,6.39,0.43
2020-10-23 06:00,6.72,0.44
2020-10-23 07:00,6.80,0.43
2020-10-23 08:00,7.88,0.45
2020-10-23 09:00,7.71,0.45
2020-10-23 10:00,7.55,0.44
2020-10-23 11:00,7.05,0.44
2020-10-23 12:00,7.05,0.43
2020-10-23 13:00,6.14,0.41
2020-10-23 14:00,5.48,0.40
2020-10-23 15:00,5.15,0.41
2020-10-23 16:00,3.25,0.40
2020-10-23 17:00,3.58,0.41
2020-10-23 18:00,3.83,0.40
2020-10-23 19:00,3.75,0.38
2020-10-23 20:00,4.24,0.36
2020-10-23 21:00,4.66,0.36
2020-10-23 22:00,4.66,0.37
2020-10-23 23:00,4.99,0.40
2020-10-24 00:00,4.57,0.37
2020-10-24 01:00,3.75,0.33
2020-10-24 02:00,2.34,0.24
2020-10-24 03:00,2.26,0.24
2020-10-24 04:00,2.18,0.24
2020-10-24 05:00,2.18,0.24
2020-10-24 06:00,2.26,0.24
2020-10-24 07:00,2.26,0.25
2020-10-24 08:00,2.26,0.24
2020-10-24 09:00,2.26,0.24
2020-10-24 10:00,2.26,0.25
2020-10-24 11:00,2.18,0.25
2020-10-24 12:00,2.18,0.25
2020-10-24 13:00,2.18,0.25
2020-10-24 14:00,1.68,0.26
2020-10-24 15:00,2.18,0.26
2020-10-24 16:00,2.51,0.26
2020-10-24 17:00,2.10,0.26
2020-10-24 18:00,1.68,0.24
2020-10-24 19:00,2.51,0.25
2020-10-24 20:00,2.43,0.24
2020-10-24 21:00,2.59,0.25
2020-10-24 22:00,2.51,0.24
2020-10-24 23:00,2.76,0.25
2020-10-25 00:00,2.67,0.24
2020-10-25 01:00,2.92,0.26
2020-10-25 02:00,3.17,0.27
2020-10-25 03:00,3.66,0.30
2020-10-25 04:00,3.42,0.30
2020-10-25 05:00,3.00,0.28
2020-10-25 06:00,3.09,0.27
2020-10-25 07:00,2.92,0.26
2020-10-25 08:00,3.09,0.25
2020-10-25 09:00,3.50,0.26
2020-10-25 10:00,3.75,0.27
2020-10-25 11:00,3.91,0.26
2020-10-25 12:00,4.57,0.28
2020-10-25 13:00,4.99,0.29
2020-10-25 14:00,4.66,0.29
2020-10-25 15:00,4.99,0.29
2020-10-25 16:00,4.57,0.28
2020-10-25 17:00,4.99,0.28
2020-10-25 18:00,5.73,0.28
2020-10-25 19:00,6.64,0.30
2020-10-25 20:00,6.97,0.29
2020-10-25 21:00,6.64,0.31
2020-10-25 22:00,6.31,0.30
2020-10-25 23:00,5.98,0.30
2020-10-26 00:00,5.98,0.30
2020-10-26 01:00,5.98,0.31
2020-10-26 02:00,5.56,0.30
2020-10-26 03:00,5.23,0.29
2020-10-26 04:00,5.07,0.28
2020-10-26 05:00,5.07,0.29
2020-10-26 06:00,5.15,0.29
2020-10-26 07:00,5.48,0.30
2020-10-26 08:00,5.40,0.30
2020-10-26 09:00,5.65,0.30
2020-10-26 10:00,5.32,0.29
2020-10-26 11:00,5.07,0.29
2020-10-26 12:00,4.66,0.29
2020-10-26 13:00,4.74,0.29
2020-10-26 14:00,4.99,0.30
2020-10-26 15:00,5.23,0.29
2020-10-26 16:00,5.81,0.29
2020-10-26 17:00,6.47,0.29
2020-10-26 18:00,6.89,0.29
2020-10-26 19:00,6.89,0.29
2020-10-26 20:00,6.80,0.29
2020-10-26 21:00,6.39,0.29
2020-10-26 22:00,5.98,0.29
2020-10-26 23:00,5.32,0.29
2020-10-27 00:00,4.99,0.26
2020-10-27 01:00,4.90,0.27
2020-10-27 02:00,4.90,0.27
2020-10-27 03:00,4.90,0.27
2020-10-27 04:00,5.07,0.25
2020-10-27 05:00,5.07,0.26
2020-10-27 06:00,5.15,0.25
2020-10-27 07:00,4.90,0.24
2020-10-27 08:00,4.90,0.24
2020-10-27 09:00,4.90,0.24
2020-10-27 10:00,5.15,0.25
2020-10-27 11:00,5.23,0.27
2020-10-27 12:00,4.90,0.24
2020-10-27 13:00,5.15,0.24
2020-10-27 14:00,5.56,0.25
2020-10-27 15:00,5.65,0.24
2020-10-27 16:00,5.15,0.24
2020-10-27 17:00,4.82,0.24
2020-10-27 18:00,4.74,0.26
2020-10-27 19:00,6.22,0.25
2020-10-27 20:00,6.47,0.27
2020-10-27 21:00,5.73,0.26
2020-10-27 22:00,5.23,0.26
2020-10-27 23:00,5.15,0.26
2020-10-28 00:00,4.99,0.26
2020-10-28 01:00,4.74,0.26
2020-10-28 02:00,4.82,0.27
2020-10-28 03:00,4.74,0.27
2020-10-28 04:00,4.57,0.26
2020-10-28 05:00,4.24,0.24
2020-10-28 06:00,4.49,0.24
2020-10-28 07:00,4.41,0.24
2020-10-28 08:00,4.82,0.25
2020-10-28 09:00,4.90,0.26
2020-10-28 10:00,4.74,0.27
2020-10-28 11:00,4.24,0.26
2020-10-28 12:00,4.24,0.27
2020-10-28 13:00,4.66,0.26
2020-10-28 14:00,4.82,0.26
2020-10-28 15:00,5.23,0.26
2020-10-28 16:00,5.56,0.26
2020-10-28 17:00,6.14,0.25
2020-10-28 18:00,6.47,0.24
2020-10-28 19:00,6.14,0.23
2020-10-28 20:00,5.98,0.23
2020-10-28 21:00,6.06,0.24
2020-10-28 22:00,5.48,0.26
2020-10-28 23:00,4.24,0.25
2020-10-29 00:00,4.41,0.25
2020-10-29 01:00,4.16,0.25
2020-10-29 02:00,3.83,0.24
2020-10-29 03:00,3.75,0.24
2020-10-29 04:00,3.58,0.24
2020-10-29 05:00,3.66,0.24
2020-10-29 06:00,3.66,0.24
2020-10-29 07:00,3.58,0.24
2020-10-29 08:00,3.50,0.24
2020-10-29 09:00,3.58,0.23
2020-10-29 10:00,3.42,0.24
2020-10-29 11:00,3.91,0.23
2020-10-29 12:00,4.16,0.22
2020-10-29 13:00,4.49,0.22
2020-10-29 14:00,4.66,0.21
2020-10-29 15:00,4.99,0.23
2020-10-29 16:00,5.23,0.23
2020-10-29 17:00,5.65,0.23
2020-10-29 18:00,5.98,0.24
2020-10-29 19:00,5.65,0.26
2020-10-29 20:00,5.56,0.32
2020-10-29 21:00,4.99,0.26
2020-10-29 22:00,4.82,0.25
2020-10-29 23:00,4.57,0.27
2020-10-30 00:00,3.83,0.24
2020-10-30 01:00,3.58,0.23
2020-10-30 02:00,3.50,0.23
2020-10-30 03:00,3.17,0.23
2020-10-30 04:00,2.92,0.24
2020-10-30 05:00,2.92,0.23
2020-10-30 06:00,2.76,0.24
2020-10-30 07:00,2.59,0.26
2020-10-30 08:00,2.59,0.26
2020-10-30 09:00,2.51,0.26
2020-10-30 10:00,2.51,0.26
2020-10-30 11:00,2.67,0.24
2020-10-30 12:00,3.25,0.21
2020-10-30 13:00,3.17,0.21
2020-10-30 14:00,3.25,0.21
2020-10-30 15:00,3.42,0.20
2020-10-30 16:00,3.42,0.21
2020-10-30 17:00,3.17,0.22
2020-10-30 18:00,2.92,0.24
2020-10-30 19:00,2.67,0.26
2020-10-30 20:00,2.59,0.29
2020-10-30 21:00,2.43,0.35
2020-10-30 22:00,2.34,0.38
2020-10-30 23:00,2.34,0.43
2020-10-31 00:00,2.51,0.43
2020-10-31 01:00,2.26,0.40
2020-10-31 02:00,2.26,0.30
2020-10-31 03:00,2.10,0.24
2020-10-31 04:00,2.10,0.24
2020-10-31 05:00,2.10,0.24
2020-10-31 06:00,2.01,0.25
2020-10-31 07:00,2.01,0.26
2020-10-31 08:00,2.10,0.26
2020-10-31 09:00,2.51,0.37
2020-10-31 10:00,2.76,0.46
2020-10-31 11:00,2.84,0.46
2020-10-31 12:00,3.25,0.53
2020-10-31 13:00,3.25,0.60
2020-10-31 14:00,2.59,0.60
2020-10-31 15:00,2.51,0.66
2020-10-31 16:00,2.43,0.64
2020-10-31 17:00,2.92,0.71
2020-10-31 18:00,3.09,0.66
2020-10-31 19:00,3.42,0.60
2020-10-31 20:00,4.08,0.56
2020-10-31 21:00,3.91,0.54
2020-10-31 22:00,3.66,0.53
2020-10-31 23:00,3.50,0.51
2020-11-01 00:00,3.42,0.52
2020-11-01 01:00,3.50,0.53
2020-11-01 02:00,3.58,0.52
2020-11-01 03:00,3.42,0.52
2020-11-01 04:00,3.17,0.49
2020-11-01 05:00,3.17,0.49
2020-11-01 06:00,3.00,0.46
2020-11-01 07:00,3.09,0.48
2020-11-01 08:00,3.00,0.46
2020-11-01 09:00,3.17,0.48
2020-11-01 10:00,3.25,0.49
2020-11-01 11:00,3.09,0.48
2020-11-01 12:00,2.84,0.44
2020-11-01 13:00,3.17,0.43
2020-11-01 14:00,3.17,0.40
2020-11-01 15:00,3.75,0.46
2020-11-01 16:00,3.66,0.46
2020-11-01 17:00,3.25,0.46
2020-11-01 18:00,3.33,0.44
2020-11-01 19:00,3.58,0.42
2020-11-01 20:00,3.17,0.39
2020-11-01 21:00,2.84,0.38
2020-11-01 22:00,2.59,0.40
2020-11-01 23:00,2.43,0.38
2020-11-02 00:00,2.34,0.38
2020-11-02 01:00,2.34,0.40
2020-11-02 02:00,2.34,0.40
2020-11-02 03:00,2.34,0.37
2020-11-02 04:00,2.26,0.35
2020-11-02 05:00,2.26,0.35
2020-11-02 06:00,2.34,0.37
2020-11-02 07:00,2.34,0.37
2020-11-02 08:00,2.51,0.39
2020-11-02 09:00,2.51,0.38
2020-11-02 10:00,2.51,0.40
2020-11-02 11:00,2.34,0.37
2020-11-02 12:00,2.43,0.37
2020-11-02 13:00,1.93,0.37
2020-11-02 14:00,1.77,0.37
2020-11-02 15:00,1.68,0.36
2020-11-02 16:00,1.93,0.37
2020-11-02 17:00,2.26,0.37
2020-11-02 18:00,2.26,0.37
2020-11-02 19:00,1.77,0.35
2020-11-02 20:00,2.43,0.35
2020-11-02 21:00,2.18,0.33
2020-11-02 22:00,2.10,0.33
2020-11-02 23:00,2.01,0.32
2020-11-03 00:00,1.93,0.32
2020-11-03 01:00,1.93,0.32
2020-11-03 02:00,1.93,0.32
2020-11-03 03:00,1.93,0.32
2020-11-03 04:00,1.93,0.32
2020-11-03 05:00,1.93,0.32
2020-11-03 06:00,1.93,0.32
2020-11-03 07:00,1.85,0.32
2020-11-03 08:00,1.85,0.34
2020-11-03 09:00,1.85,0.34
2020-11-03 10:00,1.85,0.34
2020-11-03 11:00,1.93,0.34
2020-11-03 12:00,1.93,0.32
2020-11-03 13:00,1.85,0.33
2020-11-03 14:00,1.85,0.32
2020-11-03 15:00,1.52,0.31
2020-11-03 16:00,1.52,0.32
2020-11-03 17:00,1.93,0.31
2020-11-03 18:00,1.52,0.31
2020-11-03 19:00,1.93,0.30
2020-11-03 20:00,2.18,0.30
2020-11-03 21:00,2.10,0.30
2020-11-03 22:00,2.01,0.30
2020-11-03 23:00,1.93,0.31
2020-11-04 00:00,1.93,0.31
2020-11-04 01:00,1.85,0.32
2020-11-04 02:00,1.77,0.31
2020-11-04 03:00,1.85,0.31
2020-11-04 04:00,1.85,0.31
2020-11-04 05:00,1.85,0.31
2020-11-04 06:00,1.85,0.32
2020-11-04 07:00,1.85,0.30
2020-11-04 08:00,1.93,0.30
2020-11-04 09:00,1.93,0.31
2020-11-04 10:00,1.93,0.30
2020-11-04 11:00,1.93,0.30
2020-11-04 12:00,1.85,0.29
2020-11-04 13:00,1.85,0.29
2020-11-04 14:00,1.52,0.29
2020-11-04 15:00,1.35,0.29
2020-11-04 16:00,1.27,0.29
2020-11-04 17:00,1.27,0.29
2020-11-04 18:00,1.44,0.29
2020-11-04 19:00,1.68,0.30
2020-11-04 20:00,2.43,0.30
2020-11-04 21:00,2.26,0.29
2020-11-04 22:00,2.01,0.28
2020-11-04 23:00,2.01,0.28
2020-11-05 00:00,1.93,0.27
2020-11-05 01:00,2.01,0.26
2020-11-05 02:00,2.10,0.26
2020-11-05 03:00,2.01,0.26
2020-11-05 04:00,2.01,0.27
2020-11-05 05:00,1.93,0.26
2020-11-05 06:00,1.85,0.26
2020-11-05 07:00,1.85,0.26
2020-11-05 08:00,1.77,0.26
2020-11-05 09:00,1.85,0.26
2020-11-05 10:00,1.85,0.25
2020-11-05 11:00,1.93,0.25
2020-11-05 12:00,2.01,0.24
2020-11-05 13:00,2.10,0.24
2020-11-05 14:00,1.77,0.23
2020-11-05 15:00,1.68,0.24
2020-11-05 16:00,1.60,0.24
2020-11-05 17:00,1.60,0.23
2020-11-05 18:00,1.77,0.24
2020-11-05 19:00,2.18,0.23
2020-11-05 20:00,3.25,0.25
2020-11-05 21:00,3.25,0.25
2020-11-05 22:00,3.25,0.25
2020-11-05 23:00,3.42,0.26
2020-11-06 00:00,3.25,0.26
2020-11-06 01:00,3.17,0.26
2020-11-06 02:00,3.09,0.26
2020-11-06 03:00,3.00,0.26
2020-11-06 04:00,2.92,0.25
2020-11-06 05:00,2.76,0.25
2020-11-06 06:00,2.84,0.25
2020-11-06 07:00,2.84,0.26
2020-11-06 08:00,2.84,0.26
2020-11-06 09:00,2.76,0.26
2020-11-06 10:00,2.76,0.26
2020-11-06 11:00,2.76,0.26
2020-11-06 12:00,2.67,0.26
2020-11-06 13:00,3.00,0.26
2020-11-06 14:00,3.00,0.27
2020-11-06 15:00,2.18,0.27
2020-11-06 16:00,1.85,0.28
2020-11-06 17:00,2.01,0.29
2020-11-06 18:00,2.10,0.29
2020-11-06 19:00,2.26,0.27
2020-11-06 20:00,3.25,0.28
2020-11-06 21:00,3.42,0.29
2020-11-06 22:00,3.17,0.29
2020-11-06 23:00,3.17,0.29
2020-11-07 00:00,3.33,0.30
2020-11-07 01:00,3.50,0.29
2020-11-07 02:00,3.50,0.28
2020-11-07 03:00,3.75,0.29
2020-11-07 04:00,3.83,0.28
2020-11-07 05:00,3.75,0.29
2020-11-07 06:00,3.83,0.29
2020-11-07 07:00,3.75,0.28
2020-11-07 08:00,3.75,0.29
2020-11-07 09:00,3.75,0.28
2020-11-07 10:00,3.66,0.28
2020-11-07 11:00,3.66,0.27
2020-11-07 12:00,3.58,0.28
2020-11-07 13:00,3.91,0.28
2020-11-07 14:00,3.25,0.27
2020-11-07 15:00,3.00,0.27
2020-11-07 16:00,3.09,0.27
2020-11-07 17:00,3.25,0.28
2020-11-07 18:00,3.66,0.28
2020-11-07 19:00,4.49,0.28
2020-11-07 20:00,5.65,0.29
2020-11-07 21:00,5.65,0.29
2020-11-07 22:00,5.56,0.30
2020-11-07 23:00,5.48,0.29
2020-11-08 00:00,5.48,0.30
2020-11-08 01:00,5.48,0.30
2020-11-08 02:00,5.23,0.32
2020-11-08 03:00,4.99,0.29
2020-11-08 04:00,4.99,0.29
2020-11-08 05:00,5.23,0.29
2020-11-08 06:00,5.23,0.29
2020-11-08 07:00,5.15,0.29
2020-11-08 08:00,5.40,0.29
2020-11-08 09:00,5.23,0.29
2020-11-08 10:00,5.40,0.29
2020-11-08 11:00,5.23,0.29
2020-11-08 12:00,4.99,0.29
2020-11-08 13:00,5.65,0.29
2020-11-08 14:00,4.82,0.29
2020-11-08 15:00,4.41,0.29
2020-11-08 16:00,4.49,0.29
2020-11-08 17:00,4.41,0.30
2020-11-08 18:00,4.90,0.29
2020-11-08 19:00,6.64,0.31
2020-11-08 20:00,8.12,0.32
2020-11-08 21:00,7.88,0.34
2020-11-08 22:00,7.22,0.32
2020-11-08 23:00,7.71,0.32
2020-11-09 00:00,8.04,0.32
2020-11-09 01:00,7.63,0.32
2020-11-09 02:00,7.79,0.33
2020-11-09 03:00,8.04,0.33
2020-11-09 04:00,8.12,0.34
2020-11-09 05:00,8.37,0.34
2020-11-09 06:00,8.70,0.34
2020-11-09 07:00,8.37,0.34
2020-11-09 08:00,8.21,0.33
2020-11-09 09:00,7.96,0.32
2020-11-09 10:00,7.88,0.32
2020-11-09 11:00,8.04,0.32
2020-11-09 12:00,8.45,0.34
2020-11-09 13:00,9.53,0.35
2020-11-09 14:00,8.54,0.34
2020-11-09 15:00,7.96,0.32
2020-11-09 16:00,10.02,0.35
2020-11-09 17:00,9.20,0.36
2020-11-09 18:00,10.27,0.37
2020-11-09 19:00,12.91,0.41
2020-11-09 20:00,11.10,0.35
2020-11-09 21:00,10.35,0.36
2020-11-09 22:00,10.60,0.37
2020-11-09 23:00,10.77,0.37
2020-11-10 00:00,10.35,0.36
2020-11-10 01:00,10.27,0.37
2020-11-10 02:00,10.19,0.38
2020-11-10 03:00,10.11,0.37
2020-11-10 04:00,10.27,0.38
2020-11-10 05:00,10.11,0.37
2020-11-10 06:00,9.69,0.35
2020-11-10 07:00,10.11,0.36
2020-11-10 08:00,10.19,0.37
2020-11-10 09:00,9.53,0.35
2020-11-10 10:00,9.45,0.35
2020-11-10 11:00,9.36,0.35
2020-11-10 12:00,9.20,0.35
2020-11-10 13:00,9.45,0.35
2020-11-10 14:00,8.62,0.36
2020-11-10 15:00,7.79,0.37
2020-11-10 16:00,7.05,0.35